Index of /20260501/WXO-DD/model_gdps/15km/00/186
Name Last modified Size Description
Parent Directory -
20260501T00Z_MSC_GDPS_AbsoluteVorticity_IsbL-0200_LatLon0.15_PT186H.grib2 2026-05-01 04:36 1.2M
20260501T00Z_MSC_GDPS_AbsoluteVorticity_IsbL-0250_LatLon0.15_PT186H.grib2 2026-05-01 04:36 1.3M
20260501T00Z_MSC_GDPS_AbsoluteVorticity_IsbL-0500_LatLon0.15_PT186H.grib2 2026-05-01 04:36 1.2M
20260501T00Z_MSC_GDPS_AbsoluteVorticity_IsbL-0700_LatLon0.15_PT186H.grib2 2026-05-01 04:36 1.3M
20260501T00Z_MSC_GDPS_AbsoluteVorticity_IsbL-0850_LatLon0.15_PT186H.grib2 2026-05-01 04:36 1.6M
20260501T00Z_MSC_GDPS_AirTemp-Max_AGL-2m_LatLon0.15_PT186H.grib2 2026-05-01 04:36 745K
20260501T00Z_MSC_GDPS_AirTemp-Min_AGL-2m_LatLon0.15_PT186H.grib2 2026-05-01 04:36 792K
20260501T00Z_MSC_GDPS_AirTemp_AGL-120m_LatLon0.15_PT186H.grib2 2026-05-01 04:36 907K
20260501T00Z_MSC_GDPS_AirTemp_AGL-2m_LatLon0.15_PT186H.grib2 2026-05-01 04:36 1.0M
20260501T00Z_MSC_GDPS_AirTemp_AGL-40m_LatLon0.15_PT186H.grib2 2026-05-01 04:36 811K
20260501T00Z_MSC_GDPS_AirTemp_AGL-80m_LatLon0.15_PT186H.grib2 2026-05-01 04:36 799K
20260501T00Z_MSC_GDPS_AirTemp_IsbL-0001_LatLon0.15_PT186H.grib2 2026-05-01 04:36 665K
20260501T00Z_MSC_GDPS_AirTemp_IsbL-0005_LatLon0.15_PT186H.grib2 2026-05-01 04:36 694K
20260501T00Z_MSC_GDPS_AirTemp_IsbL-0010_LatLon0.15_PT186H.grib2 2026-05-01 04:36 702K
20260501T00Z_MSC_GDPS_AirTemp_IsbL-0020_LatLon0.15_PT186H.grib2 2026-05-01 04:36 793K
20260501T00Z_MSC_GDPS_AirTemp_IsbL-0030_LatLon0.15_PT186H.grib2 2026-05-01 04:36 841K
20260501T00Z_MSC_GDPS_AirTemp_IsbL-0050_LatLon0.15_PT186H.grib2 2026-05-01 04:36 808K
20260501T00Z_MSC_GDPS_AirTemp_IsbL-0100_LatLon0.15_PT186H.grib2 2026-05-01 04:36 970K
20260501T00Z_MSC_GDPS_AirTemp_IsbL-0150_LatLon0.15_PT186H.grib2 2026-05-01 04:36 1.0M
20260501T00Z_MSC_GDPS_AirTemp_IsbL-0175_LatLon0.15_PT186H.grib2 2026-05-01 04:36 963K
20260501T00Z_MSC_GDPS_AirTemp_IsbL-0200_LatLon0.15_PT186H.grib2 2026-05-01 04:36 1.0M
20260501T00Z_MSC_GDPS_AirTemp_IsbL-0225_LatLon0.15_PT186H.grib2 2026-05-01 04:36 973K
20260501T00Z_MSC_GDPS_AirTemp_IsbL-0250_LatLon0.15_PT186H.grib2 2026-05-01 04:36 1.0M
20260501T00Z_MSC_GDPS_AirTemp_IsbL-0275_LatLon0.15_PT186H.grib2 2026-05-01 04:36 1.0M
20260501T00Z_MSC_GDPS_AirTemp_IsbL-0300_LatLon0.15_PT186H.grib2 2026-05-01 04:36 951K
20260501T00Z_MSC_GDPS_AirTemp_IsbL-0350_LatLon0.15_PT186H.grib2 2026-05-01 04:36 934K
20260501T00Z_MSC_GDPS_AirTemp_IsbL-0400_LatLon0.15_PT186H.grib2 2026-05-01 04:36 945K
20260501T00Z_MSC_GDPS_AirTemp_IsbL-0450_LatLon0.15_PT186H.grib2 2026-05-01 04:36 968K
20260501T00Z_MSC_GDPS_AirTemp_IsbL-0500_LatLon0.15_PT186H.grib2 2026-05-01 04:36 1.0M
20260501T00Z_MSC_GDPS_AirTemp_IsbL-0550_LatLon0.15_PT186H.grib2 2026-05-01 04:36 810K
20260501T00Z_MSC_GDPS_AirTemp_IsbL-0600_LatLon0.15_PT186H.grib2 2026-05-01 04:36 903K
20260501T00Z_MSC_GDPS_AirTemp_IsbL-0650_LatLon0.15_PT186H.grib2 2026-05-01 04:36 930K
20260501T00Z_MSC_GDPS_AirTemp_IsbL-0700_LatLon0.15_PT186H.grib2 2026-05-01 04:36 964K
20260501T00Z_MSC_GDPS_AirTemp_IsbL-0750_LatLon0.15_PT186H.grib2 2026-05-01 04:36 1.0M
20260501T00Z_MSC_GDPS_AirTemp_IsbL-0800_LatLon0.15_PT186H.grib2 2026-05-01 04:36 1.1M
20260501T00Z_MSC_GDPS_AirTemp_IsbL-0850_LatLon0.15_PT186H.grib2 2026-05-01 04:36 1.1M
20260501T00Z_MSC_GDPS_AirTemp_IsbL-0875_LatLon0.15_PT186H.grib2 2026-05-01 04:36 1.2M
20260501T00Z_MSC_GDPS_AirTemp_IsbL-0900_LatLon0.15_PT186H.grib2 2026-05-01 04:36 1.2M
20260501T00Z_MSC_GDPS_AirTemp_IsbL-0925_LatLon0.15_PT186H.grib2 2026-05-01 04:36 1.1M
20260501T00Z_MSC_GDPS_AirTemp_IsbL-0950_LatLon0.15_PT186H.grib2 2026-05-01 04:36 1.2M
20260501T00Z_MSC_GDPS_AirTemp_IsbL-0970_LatLon0.15_PT186H.grib2 2026-05-01 04:36 1.2M
20260501T00Z_MSC_GDPS_AirTemp_IsbL-0985_LatLon0.15_PT186H.grib2 2026-05-01 04:36 1.1M
20260501T00Z_MSC_GDPS_AirTemp_IsbL-1000_LatLon0.15_PT186H.grib2 2026-05-01 04:36 1.1M
20260501T00Z_MSC_GDPS_AirTemp_IsbL-1015_LatLon0.15_PT186H.grib2 2026-05-01 04:36 1.1M
20260501T00Z_MSC_GDPS_Albedo_Sfc_LatLon0.15_PT186H.grib2 2026-05-01 04:36 245K
20260501T00Z_MSC_GDPS_CAPE_Sfc_LatLon0.15_PT186H.grib2 2026-05-01 04:36 3.8M
20260501T00Z_MSC_GDPS_CIN_Sfc_LatLon0.15_PT186H.grib2 2026-05-01 04:36 2.9M
20260501T00Z_MSC_GDPS_CloudWater_EAtm_LatLon0.15_PT186H.grib2 2026-05-01 04:36 545K
20260501T00Z_MSC_GDPS_ConvectivePrecip-Accum_Sfc_LatLon0.15_PT186H.grib2 2026-05-01 04:36 3.9M
20260501T00Z_MSC_GDPS_DewPointDepression_AGL-2m_LatLon0.15_PT186H.grib2 2026-05-01 04:36 767K
20260501T00Z_MSC_GDPS_DewPointDepression_IsbL-0010_LatLon0.15_PT186H.grib2 2026-05-01 04:36 79K
20260501T00Z_MSC_GDPS_DewPointDepression_IsbL-0020_LatLon0.15_PT186H.grib2 2026-05-01 04:36 77K
20260501T00Z_MSC_GDPS_DewPointDepression_IsbL-0030_LatLon0.15_PT186H.grib2 2026-05-01 04:36 90K
20260501T00Z_MSC_GDPS_DewPointDepression_IsbL-0050_LatLon0.15_PT186H.grib2 2026-05-01 04:36 383K
20260501T00Z_MSC_GDPS_DewPointDepression_IsbL-0100_LatLon0.15_PT186H.grib2 2026-05-01 04:36 402K
20260501T00Z_MSC_GDPS_DewPointDepression_IsbL-0150_LatLon0.15_PT186H.grib2 2026-05-01 04:36 499K
20260501T00Z_MSC_GDPS_DewPointDepression_IsbL-0175_LatLon0.15_PT186H.grib2 2026-05-01 04:36 591K
20260501T00Z_MSC_GDPS_DewPointDepression_IsbL-0200_LatLon0.15_PT186H.grib2 2026-05-01 04:36 693K
20260501T00Z_MSC_GDPS_DewPointDepression_IsbL-0225_LatLon0.15_PT186H.grib2 2026-05-01 04:36 773K
20260501T00Z_MSC_GDPS_DewPointDepression_IsbL-0250_LatLon0.15_PT186H.grib2 2026-05-01 04:36 868K
20260501T00Z_MSC_GDPS_DewPointDepression_IsbL-0275_LatLon0.15_PT186H.grib2 2026-05-01 04:36 892K
20260501T00Z_MSC_GDPS_DewPointDepression_IsbL-0300_LatLon0.15_PT186H.grib2 2026-05-01 04:36 932K
20260501T00Z_MSC_GDPS_DewPointDepression_IsbL-0350_LatLon0.15_PT186H.grib2 2026-05-01 04:36 955K
20260501T00Z_MSC_GDPS_DewPointDepression_IsbL-0400_LatLon0.15_PT186H.grib2 2026-05-01 04:36 1.0M
20260501T00Z_MSC_GDPS_DewPointDepression_IsbL-0450_LatLon0.15_PT186H.grib2 2026-05-01 04:36 1.0M
20260501T00Z_MSC_GDPS_DewPointDepression_IsbL-0500_LatLon0.15_PT186H.grib2 2026-05-01 04:36 1.0M
20260501T00Z_MSC_GDPS_DewPointDepression_IsbL-0550_LatLon0.15_PT186H.grib2 2026-05-01 04:36 1.0M
20260501T00Z_MSC_GDPS_DewPointDepression_IsbL-0600_LatLon0.15_PT186H.grib2 2026-05-01 04:36 1.1M
20260501T00Z_MSC_GDPS_DewPointDepression_IsbL-0650_LatLon0.15_PT186H.grib2 2026-05-01 04:36 1.1M
20260501T00Z_MSC_GDPS_DewPointDepression_IsbL-0700_LatLon0.15_PT186H.grib2 2026-05-01 04:36 1.1M
20260501T00Z_MSC_GDPS_DewPointDepression_IsbL-0750_LatLon0.15_PT186H.grib2 2026-05-01 04:36 1.1M
20260501T00Z_MSC_GDPS_DewPointDepression_IsbL-0800_LatLon0.15_PT186H.grib2 2026-05-01 04:36 1.2M
20260501T00Z_MSC_GDPS_DewPointDepression_IsbL-0850_LatLon0.15_PT186H.grib2 2026-05-01 04:36 1.2M
20260501T00Z_MSC_GDPS_DewPointDepression_IsbL-0875_LatLon0.15_PT186H.grib2 2026-05-01 04:36 1.1M
20260501T00Z_MSC_GDPS_DewPointDepression_IsbL-0900_LatLon0.15_PT186H.grib2 2026-05-01 04:36 1.1M
20260501T00Z_MSC_GDPS_DewPointDepression_IsbL-0925_LatLon0.15_PT186H.grib2 2026-05-01 04:36 1.0M
20260501T00Z_MSC_GDPS_DewPointDepression_IsbL-0950_LatLon0.15_PT186H.grib2 2026-05-01 04:36 1.0M
20260501T00Z_MSC_GDPS_DewPointDepression_IsbL-0970_LatLon0.15_PT186H.grib2 2026-05-01 04:36 1.0M
20260501T00Z_MSC_GDPS_DewPointDepression_IsbL-0985_LatLon0.15_PT186H.grib2 2026-05-01 04:36 1.0M
20260501T00Z_MSC_GDPS_DewPointDepression_IsbL-1000_LatLon0.15_PT186H.grib2 2026-05-01 04:36 1.0M
20260501T00Z_MSC_GDPS_DewPointDepression_IsbL-1015_LatLon0.15_PT186H.grib2 2026-05-01 04:36 923K
20260501T00Z_MSC_GDPS_DewPoint_AGL-2m_LatLon0.15_PT186H.grib2 2026-05-01 04:36 613K
20260501T00Z_MSC_GDPS_DownwardLongwaveRadiationFlux-Accum_Sfc_LatLon0.15_PT186H.grib2 2026-05-01 04:36 658K
20260501T00Z_MSC_GDPS_DownwardShortwaveRadiationFlux-Accum_NTAtm_LatLon0.15_PT186H.grib2 2026-05-01 04:36 237K
20260501T00Z_MSC_GDPS_DownwardShortwaveRadiationFlux-Accum_Sfc_LatLon0.15_PT186H.grib2 2026-05-01 04:36 846K
20260501T00Z_MSC_GDPS_FreezingRain-Accum12h_Sfc_LatLon0.15_PT186H.grib2 2026-05-01 04:36 118K
20260501T00Z_MSC_GDPS_FreezingRain-Accum24h_Sfc_LatLon0.15_PT186H.grib2 2026-05-01 04:36 168K
20260501T00Z_MSC_GDPS_FreezingRain-Accum6h_Sfc_LatLon0.15_PT186H.grib2 2026-05-01 04:36 90K
20260501T00Z_MSC_GDPS_FreezingRain-Accum_Sfc_LatLon0.15_PT186H.grib2 2026-05-01 04:36 455K
20260501T00Z_MSC_GDPS_GeopotentialHeight_IsbL-0001_LatLon0.15_PT186H.grib2 2026-05-01 04:36 443K
20260501T00Z_MSC_GDPS_GeopotentialHeight_IsbL-0005_LatLon0.15_PT186H.grib2 2026-05-01 04:36 503K
20260501T00Z_MSC_GDPS_GeopotentialHeight_IsbL-0010_LatLon0.15_PT186H.grib2 2026-05-01 04:36 484K
20260501T00Z_MSC_GDPS_GeopotentialHeight_IsbL-0020_LatLon0.15_PT186H.grib2 2026-05-01 04:36 417K
20260501T00Z_MSC_GDPS_GeopotentialHeight_IsbL-0030_LatLon0.15_PT186H.grib2 2026-05-01 04:36 421K
20260501T00Z_MSC_GDPS_GeopotentialHeight_IsbL-0050_LatLon0.15_PT186H.grib2 2026-05-01 04:36 571K
20260501T00Z_MSC_GDPS_GeopotentialHeight_IsbL-0100_LatLon0.15_PT186H.grib2 2026-05-01 04:36 608K
20260501T00Z_MSC_GDPS_GeopotentialHeight_IsbL-0150_LatLon0.15_PT186H.grib2 2026-05-01 04:36 629K
20260501T00Z_MSC_GDPS_GeopotentialHeight_IsbL-0175_LatLon0.15_PT186H.grib2 2026-05-01 04:36 633K
20260501T00Z_MSC_GDPS_GeopotentialHeight_IsbL-0200_LatLon0.15_PT186H.grib2 2026-05-01 04:36 638K
20260501T00Z_MSC_GDPS_GeopotentialHeight_IsbL-0225_LatLon0.15_PT186H.grib2 2026-05-01 04:36 642K
20260501T00Z_MSC_GDPS_GeopotentialHeight_IsbL-0250_LatLon0.15_PT186H.grib2 2026-05-01 04:36 645K
20260501T00Z_MSC_GDPS_GeopotentialHeight_IsbL-0275_LatLon0.15_PT186H.grib2 2026-05-01 04:36 645K
20260501T00Z_MSC_GDPS_GeopotentialHeight_IsbL-0300_LatLon0.15_PT186H.grib2 2026-05-01 04:36 645K
20260501T00Z_MSC_GDPS_GeopotentialHeight_IsbL-0350_LatLon0.15_PT186H.grib2 2026-05-01 04:36 636K
20260501T00Z_MSC_GDPS_GeopotentialHeight_IsbL-0400_LatLon0.15_PT186H.grib2 2026-05-01 04:36 626K
20260501T00Z_MSC_GDPS_GeopotentialHeight_IsbL-0450_LatLon0.15_PT186H.grib2 2026-05-01 04:36 617K
20260501T00Z_MSC_GDPS_GeopotentialHeight_IsbL-0500_LatLon0.15_PT186H.grib2 2026-05-01 04:36 534K
20260501T00Z_MSC_GDPS_GeopotentialHeight_IsbL-0550_LatLon0.15_PT186H.grib2 2026-05-01 04:36 530K
20260501T00Z_MSC_GDPS_GeopotentialHeight_IsbL-0600_LatLon0.15_PT186H.grib2 2026-05-01 04:36 526K
20260501T00Z_MSC_GDPS_GeopotentialHeight_IsbL-0650_LatLon0.15_PT186H.grib2 2026-05-01 04:36 693K
20260501T00Z_MSC_GDPS_GeopotentialHeight_IsbL-0700_LatLon0.15_PT186H.grib2 2026-05-01 04:36 690K
20260501T00Z_MSC_GDPS_GeopotentialHeight_IsbL-0750_LatLon0.15_PT186H.grib2 2026-05-01 04:36 699K
20260501T00Z_MSC_GDPS_GeopotentialHeight_IsbL-0800_LatLon0.15_PT186H.grib2 2026-05-01 04:36 708K
20260501T00Z_MSC_GDPS_GeopotentialHeight_IsbL-0850_LatLon0.15_PT186H.grib2 2026-05-01 04:36 715K
20260501T00Z_MSC_GDPS_GeopotentialHeight_IsbL-0875_LatLon0.15_PT186H.grib2 2026-05-01 04:36 720K
20260501T00Z_MSC_GDPS_GeopotentialHeight_IsbL-0900_LatLon0.15_PT186H.grib2 2026-05-01 04:36 728K
20260501T00Z_MSC_GDPS_GeopotentialHeight_IsbL-0925_LatLon0.15_PT186H.grib2 2026-05-01 04:36 737K
20260501T00Z_MSC_GDPS_GeopotentialHeight_IsbL-0950_LatLon0.15_PT186H.grib2 2026-05-01 04:36 739K
20260501T00Z_MSC_GDPS_GeopotentialHeight_IsbL-0970_LatLon0.15_PT186H.grib2 2026-05-01 04:36 753K
20260501T00Z_MSC_GDPS_GeopotentialHeight_IsbL-0985_LatLon0.15_PT186H.grib2 2026-05-01 04:36 769K
20260501T00Z_MSC_GDPS_GeopotentialHeight_IsbL-1000_LatLon0.15_PT186H.grib2 2026-05-01 04:36 790K
20260501T00Z_MSC_GDPS_GeopotentialHeight_IsbL-1015_LatLon0.15_PT186H.grib2 2026-05-01 04:36 812K
20260501T00Z_MSC_GDPS_Humidex_Sfc_LatLon0.15_PT186H.grib2 2026-05-01 04:36 5.3M
20260501T00Z_MSC_GDPS_IcePellets-Accum12h_Sfc_LatLon0.15_PT186H.grib2 2026-05-01 04:36 30K
20260501T00Z_MSC_GDPS_IcePellets-Accum24h_Sfc_LatLon0.15_PT186H.grib2 2026-05-01 04:36 51K
20260501T00Z_MSC_GDPS_IcePellets-Accum6h_Sfc_LatLon0.15_PT186H.grib2 2026-05-01 04:36 24K
20260501T00Z_MSC_GDPS_IcePellets-Accum_Sfc_LatLon0.15_PT186H.grib2 2026-05-01 04:36 178K
20260501T00Z_MSC_GDPS_KIndex_Sfc_LatLon0.15_PT186H.grib2 2026-05-01 04:36 6.5M
20260501T00Z_MSC_GDPS_LatentHeatNetFlux_Sfc_LatLon0.15_PT186H.grib2 2026-05-01 04:36 533K
20260501T00Z_MSC_GDPS_LiftedIndex-MU-VT_IsbL-0500_LatLon0.15_PT186H.grib2 2026-05-01 04:36 5.4M
20260501T00Z_MSC_GDPS_NetLongwaveRadiationFlux-Accum_Sfc_LatLon0.15_PT186H.grib2 2026-05-01 04:36 882K
20260501T00Z_MSC_GDPS_NetShortwaveRadiationFlux-Accum_Sfc_LatLon0.15_PT186H.grib2 2026-05-01 04:36 842K
20260501T00Z_MSC_GDPS_O3MixingRatio_Sfc_LatLon0.15_PT186H.grib2 2026-05-01 04:51 1.9M
20260501T00Z_MSC_GDPS_O3_EAtm_LatLon0.15_PT186H.grib2 2026-05-01 04:51 2.4M
20260501T00Z_MSC_GDPS_PlanetaryBoundaryLayerHeight_Sfc_LatLon0.15_PT186H.grib2 2026-05-01 04:36 2.4M
20260501T00Z_MSC_GDPS_Precip-Accum12h_Sfc_LatLon0.15_PT186H.grib2 2026-05-01 04:36 4.1M
20260501T00Z_MSC_GDPS_Precip-Accum24h_Sfc_LatLon0.15_PT186H.grib2 2026-05-01 04:36 4.6M
20260501T00Z_MSC_GDPS_Precip-Accum6h_Sfc_LatLon0.15_PT186H.grib2 2026-05-01 04:36 3.6M
20260501T00Z_MSC_GDPS_Precip-Accum_Sfc_LatLon0.15_PT186H.grib2 2026-05-01 04:36 5.0M
20260501T00Z_MSC_GDPS_PrecipRate_Sfc_LatLon0.15_PT186H.grib2 2026-05-01 04:36 3.0M
20260501T00Z_MSC_GDPS_PrecipType-Instant_Sfc_LatLon0.15_PT186H.grib2 2026-05-01 04:36 1.6M
20260501T00Z_MSC_GDPS_Pressure_MSL_LatLon0.15_PT186H.grib2 2026-05-01 04:36 727K
20260501T00Z_MSC_GDPS_Pressure_PVU-1.5_LatLon0.15_PT186H.grib2 2026-05-01 04:36 5.8M
20260501T00Z_MSC_GDPS_Pressure_PVU-1_LatLon0.15_PT186H.grib2 2026-05-01 04:36 6.0M
20260501T00Z_MSC_GDPS_Pressure_PVU-2_LatLon0.15_PT186H.grib2 2026-05-01 04:36 5.6M
20260501T00Z_MSC_GDPS_Pressure_Sfc_LatLon0.15_PT186H.grib2 2026-05-01 04:36 1.1M
20260501T00Z_MSC_GDPS_RadiativeTemp_Sfc_LatLon0.15_PT186H.grib2 2026-05-01 04:36 665K
20260501T00Z_MSC_GDPS_Rain-Accum12h_Sfc_LatLon0.15_PT186H.grib2 2026-05-01 04:36 2.7M
20260501T00Z_MSC_GDPS_Rain-Accum24h_Sfc_LatLon0.15_PT186H.grib2 2026-05-01 04:36 3.3M
20260501T00Z_MSC_GDPS_Rain-Accum6h_Sfc_LatLon0.15_PT186H.grib2 2026-05-01 04:36 2.3M
20260501T00Z_MSC_GDPS_Rain-Accum_Sfc_LatLon0.15_PT186H.grib2 2026-05-01 04:36 4.0M
20260501T00Z_MSC_GDPS_RelativeHumidity_AGL-2m_LatLon0.15_PT186H.grib2 2026-05-01 04:36 1.0M
20260501T00Z_MSC_GDPS_RelativeHumidity_IsbL-0010_LatLon0.15_PT186H.grib2 2026-05-01 04:36 199K
20260501T00Z_MSC_GDPS_RelativeHumidity_IsbL-0020_LatLon0.15_PT186H.grib2 2026-05-01 04:36 160K
20260501T00Z_MSC_GDPS_RelativeHumidity_IsbL-0030_LatLon0.15_PT186H.grib2 2026-05-01 04:36 184K
20260501T00Z_MSC_GDPS_RelativeHumidity_IsbL-0050_LatLon0.15_PT186H.grib2 2026-05-01 04:36 333K
20260501T00Z_MSC_GDPS_RelativeHumidity_IsbL-0100_LatLon0.15_PT186H.grib2 2026-05-01 04:36 502K
20260501T00Z_MSC_GDPS_RelativeHumidity_IsbL-0150_LatLon0.15_PT186H.grib2 2026-05-01 04:36 684K
20260501T00Z_MSC_GDPS_RelativeHumidity_IsbL-0175_LatLon0.15_PT186H.grib2 2026-05-01 04:36 802K
20260501T00Z_MSC_GDPS_RelativeHumidity_IsbL-0200_LatLon0.15_PT186H.grib2 2026-05-01 04:36 715K
20260501T00Z_MSC_GDPS_RelativeHumidity_IsbL-0225_LatLon0.15_PT186H.grib2 2026-05-01 04:36 799K
20260501T00Z_MSC_GDPS_RelativeHumidity_IsbL-0250_LatLon0.15_PT186H.grib2 2026-05-01 04:36 870K
20260501T00Z_MSC_GDPS_RelativeHumidity_IsbL-0275_LatLon0.15_PT186H.grib2 2026-05-01 04:36 894K
20260501T00Z_MSC_GDPS_RelativeHumidity_IsbL-0300_LatLon0.15_PT186H.grib2 2026-05-01 04:36 936K
20260501T00Z_MSC_GDPS_RelativeHumidity_IsbL-0350_LatLon0.15_PT186H.grib2 2026-05-01 04:36 948K
20260501T00Z_MSC_GDPS_RelativeHumidity_IsbL-0400_LatLon0.15_PT186H.grib2 2026-05-01 04:36 1.0M
20260501T00Z_MSC_GDPS_RelativeHumidity_IsbL-0450_LatLon0.15_PT186H.grib2 2026-05-01 04:36 1.0M
20260501T00Z_MSC_GDPS_RelativeHumidity_IsbL-0500_LatLon0.15_PT186H.grib2 2026-05-01 04:36 1.0M
20260501T00Z_MSC_GDPS_RelativeHumidity_IsbL-0550_LatLon0.15_PT186H.grib2 2026-05-01 04:36 1.0M
20260501T00Z_MSC_GDPS_RelativeHumidity_IsbL-0600_LatLon0.15_PT186H.grib2 2026-05-01 04:36 1.1M
20260501T00Z_MSC_GDPS_RelativeHumidity_IsbL-0650_LatLon0.15_PT186H.grib2 2026-05-01 04:36 1.1M
20260501T00Z_MSC_GDPS_RelativeHumidity_IsbL-0700_LatLon0.15_PT186H.grib2 2026-05-01 04:36 1.2M
20260501T00Z_MSC_GDPS_RelativeHumidity_IsbL-0750_LatLon0.15_PT186H.grib2 2026-05-01 04:36 1.1M
20260501T00Z_MSC_GDPS_RelativeHumidity_IsbL-0800_LatLon0.15_PT186H.grib2 2026-05-01 04:36 1.2M
20260501T00Z_MSC_GDPS_RelativeHumidity_IsbL-0850_LatLon0.15_PT186H.grib2 2026-05-01 04:36 1.3M
20260501T00Z_MSC_GDPS_RelativeHumidity_IsbL-0875_LatLon0.15_PT186H.grib2 2026-05-01 04:36 1.3M
20260501T00Z_MSC_GDPS_RelativeHumidity_IsbL-0900_LatLon0.15_PT186H.grib2 2026-05-01 04:36 1.3M
20260501T00Z_MSC_GDPS_RelativeHumidity_IsbL-0925_LatLon0.15_PT186H.grib2 2026-05-01 04:36 1.2M
20260501T00Z_MSC_GDPS_RelativeHumidity_IsbL-0950_LatLon0.15_PT186H.grib2 2026-05-01 04:36 1.2M
20260501T00Z_MSC_GDPS_RelativeHumidity_IsbL-0970_LatLon0.15_PT186H.grib2 2026-05-01 04:36 1.2M
20260501T00Z_MSC_GDPS_RelativeHumidity_IsbL-0985_LatLon0.15_PT186H.grib2 2026-05-01 04:36 1.2M
20260501T00Z_MSC_GDPS_RelativeHumidity_IsbL-1000_LatLon0.15_PT186H.grib2 2026-05-01 04:36 1.2M
20260501T00Z_MSC_GDPS_RelativeHumidity_IsbL-1015_LatLon0.15_PT186H.grib2 2026-05-01 04:36 1.1M
20260501T00Z_MSC_GDPS_RelativeVorticity_IsbL-0200_LatLon0.15_PT186H.grib2 2026-05-01 04:36 1.2M
20260501T00Z_MSC_GDPS_RelativeVorticity_IsbL-0250_LatLon0.15_PT186H.grib2 2026-05-01 04:36 1.3M
20260501T00Z_MSC_GDPS_RelativeVorticity_IsbL-0500_LatLon0.15_PT186H.grib2 2026-05-01 04:36 1.5M
20260501T00Z_MSC_GDPS_RelativeVorticity_IsbL-0700_LatLon0.15_PT186H.grib2 2026-05-01 04:36 1.3M
20260501T00Z_MSC_GDPS_RelativeVorticity_IsbL-0850_LatLon0.15_PT186H.grib2 2026-05-01 04:36 1.6M
20260501T00Z_MSC_GDPS_Runoff-Accum_Sfc_LatLon0.15_PT186H.grib2 2026-05-01 04:36 128K
20260501T00Z_MSC_GDPS_SensibleHeatNetFlux_Sfc_LatLon0.15_PT186H.grib2 2026-05-01 04:36 468K
20260501T00Z_MSC_GDPS_ShowalterIndex_IsbL-0500_LatLon0.15_PT186H.grib2 2026-05-01 04:36 6.2M
20260501T00Z_MSC_GDPS_Snow-Accum12h_Sfc_LatLon0.15_PT186H.grib2 2026-05-01 04:36 1.4M
20260501T00Z_MSC_GDPS_Snow-Accum24h_Sfc_LatLon0.15_PT186H.grib2 2026-05-01 04:36 1.6M
20260501T00Z_MSC_GDPS_Snow-Accum6h_Sfc_LatLon0.15_PT186H.grib2 2026-05-01 04:36 1.4M
20260501T00Z_MSC_GDPS_Snow-Accum_Sfc_LatLon0.15_PT186H.grib2 2026-05-01 04:36 2.1M
20260501T00Z_MSC_GDPS_SnowDensity_Sfc_LatLon0.15_PT186H.grib2 2026-05-01 04:36 258K
20260501T00Z_MSC_GDPS_SnowDepth_Sfc_LatLon0.15_PT186H.grib2 2026-05-01 04:36 1.7M
20260501T00Z_MSC_GDPS_SoilTemp_DBS-0to10cm_LatLon0.15_PT186H.grib2 2026-05-01 04:36 517K
20260501T00Z_MSC_GDPS_SoilTemp_Sfc_LatLon0.15_PT186H.grib2 2026-05-01 04:36 581K
20260501T00Z_MSC_GDPS_SoilVolumetricIceContent_Sfc_LatLon0.15_PT186H.grib2 2026-05-01 04:36 182K
20260501T00Z_MSC_GDPS_SoilVolumetricWaterContent_DBS-0to10cm_LatLon0.15_PT186H.grib2 2026-05-01 04:36 596K
20260501T00Z_MSC_GDPS_SoilVolumetricWaterContent_DBS-0to1cm_LatLon0.15_PT186H.grib2 2026-05-01 04:36 650K
20260501T00Z_MSC_GDPS_SpecificHumidity_AGL-120m_LatLon0.15_PT186H.grib2 2026-05-01 04:36 1.1M
20260501T00Z_MSC_GDPS_SpecificHumidity_AGL-2m_LatLon0.15_PT186H.grib2 2026-05-01 04:36 1.2M
20260501T00Z_MSC_GDPS_SpecificHumidity_AGL-40m_LatLon0.15_PT186H.grib2 2026-05-01 04:36 1.1M
20260501T00Z_MSC_GDPS_SpecificHumidity_AGL-80m_LatLon0.15_PT186H.grib2 2026-05-01 04:36 1.1M
20260501T00Z_MSC_GDPS_SpecificHumidity_IsbL-0001_LatLon0.15_PT186H.grib2 2026-05-01 04:36 1.2M
20260501T00Z_MSC_GDPS_SpecificHumidity_IsbL-0005_LatLon0.15_PT186H.grib2 2026-05-01 04:36 1.0M
20260501T00Z_MSC_GDPS_SpecificHumidity_IsbL-0010_LatLon0.15_PT186H.grib2 2026-05-01 04:36 1.2M
20260501T00Z_MSC_GDPS_SpecificHumidity_IsbL-0020_LatLon0.15_PT186H.grib2 2026-05-01 04:36 1.2M
20260501T00Z_MSC_GDPS_SpecificHumidity_IsbL-0030_LatLon0.15_PT186H.grib2 2026-05-01 04:36 1.4M
20260501T00Z_MSC_GDPS_SpecificHumidity_IsbL-0050_LatLon0.15_PT186H.grib2 2026-05-01 04:36 1.5M
20260501T00Z_MSC_GDPS_SpecificHumidity_IsbL-0100_LatLon0.15_PT186H.grib2 2026-05-01 04:36 1.2M
20260501T00Z_MSC_GDPS_SpecificHumidity_IsbL-0150_LatLon0.15_PT186H.grib2 2026-05-01 04:36 1.3M
20260501T00Z_MSC_GDPS_SpecificHumidity_IsbL-0175_LatLon0.15_PT186H.grib2 2026-05-01 04:36 1.3M
20260501T00Z_MSC_GDPS_SpecificHumidity_IsbL-0200_LatLon0.15_PT186H.grib2 2026-05-01 04:36 1.3M
20260501T00Z_MSC_GDPS_SpecificHumidity_IsbL-0225_LatLon0.15_PT186H.grib2 2026-05-01 04:36 1.3M
20260501T00Z_MSC_GDPS_SpecificHumidity_IsbL-0250_LatLon0.15_PT186H.grib2 2026-05-01 04:36 1.2M
20260501T00Z_MSC_GDPS_SpecificHumidity_IsbL-0275_LatLon0.15_PT186H.grib2 2026-05-01 04:36 1.3M
20260501T00Z_MSC_GDPS_SpecificHumidity_IsbL-0300_LatLon0.15_PT186H.grib2 2026-05-01 04:36 1.2M
20260501T00Z_MSC_GDPS_SpecificHumidity_IsbL-0350_LatLon0.15_PT186H.grib2 2026-05-01 04:36 1.2M
20260501T00Z_MSC_GDPS_SpecificHumidity_IsbL-0400_LatLon0.15_PT186H.grib2 2026-05-01 04:36 1.5M
20260501T00Z_MSC_GDPS_SpecificHumidity_IsbL-0450_LatLon0.15_PT186H.grib2 2026-05-01 04:36 1.3M
20260501T00Z_MSC_GDPS_SpecificHumidity_IsbL-0500_LatLon0.15_PT186H.grib2 2026-05-01 04:36 1.5M
20260501T00Z_MSC_GDPS_SpecificHumidity_IsbL-0550_LatLon0.15_PT186H.grib2 2026-05-01 04:36 1.6M
20260501T00Z_MSC_GDPS_SpecificHumidity_IsbL-0600_LatLon0.15_PT186H.grib2 2026-05-01 04:36 1.4M
20260501T00Z_MSC_GDPS_SpecificHumidity_IsbL-0650_LatLon0.15_PT186H.grib2 2026-05-01 04:36 1.5M
20260501T00Z_MSC_GDPS_SpecificHumidity_IsbL-0700_LatLon0.15_PT186H.grib2 2026-05-01 04:36 1.6M
20260501T00Z_MSC_GDPS_SpecificHumidity_IsbL-0750_LatLon0.15_PT186H.grib2 2026-05-01 04:36 1.8M
20260501T00Z_MSC_GDPS_SpecificHumidity_IsbL-0800_LatLon0.15_PT186H.grib2 2026-05-01 04:36 1.9M
20260501T00Z_MSC_GDPS_SpecificHumidity_IsbL-0850_LatLon0.15_PT186H.grib2 2026-05-01 04:36 2.0M
20260501T00Z_MSC_GDPS_SpecificHumidity_IsbL-0875_LatLon0.15_PT186H.grib2 2026-05-01 04:36 2.0M
20260501T00Z_MSC_GDPS_SpecificHumidity_IsbL-0900_LatLon0.15_PT186H.grib2 2026-05-01 04:36 1.6M
20260501T00Z_MSC_GDPS_SpecificHumidity_IsbL-0925_LatLon0.15_PT186H.grib2 2026-05-01 04:36 1.6M
20260501T00Z_MSC_GDPS_SpecificHumidity_IsbL-0950_LatLon0.15_PT186H.grib2 2026-05-01 04:36 1.6M
20260501T00Z_MSC_GDPS_SpecificHumidity_IsbL-0970_LatLon0.15_PT186H.grib2 2026-05-01 04:36 1.6M
20260501T00Z_MSC_GDPS_SpecificHumidity_IsbL-0985_LatLon0.15_PT186H.grib2 2026-05-01 04:36 1.5M
20260501T00Z_MSC_GDPS_SpecificHumidity_IsbL-1000_LatLon0.15_PT186H.grib2 2026-05-01 04:36 1.5M
20260501T00Z_MSC_GDPS_SpecificHumidity_IsbL-1015_LatLon0.15_PT186H.grib2 2026-05-01 04:36 1.5M
20260501T00Z_MSC_GDPS_SpecificHumidity_Sfc_LatLon0.15_PT186H.grib2 2026-05-01 04:36 676K
20260501T00Z_MSC_GDPS_Thickness_IsbL-0850to0700_LatLon0.15_PT186H.grib2 2026-05-01 04:36 473K
20260501T00Z_MSC_GDPS_Thickness_IsbL-1000to0500_LatLon0.15_PT186H.grib2 2026-05-01 04:36 377K
20260501T00Z_MSC_GDPS_Thickness_IsbL-1000to0850_LatLon0.15_PT186H.grib2 2026-05-01 04:36 494K
20260501T00Z_MSC_GDPS_TotalCloudCover_Sfc_LatLon0.15_PT186H.grib2 2026-05-01 04:36 827K
20260501T00Z_MSC_GDPS_TotalTotalsIndex_Sfc_LatLon0.15_PT186H.grib2 2026-05-01 04:36 6.2M
20260501T00Z_MSC_GDPS_UVIndex-ClearSky-Max24h_Sfc_LatLon0.15_PT186H.grib2 2026-05-01 04:51 2.2M
20260501T00Z_MSC_GDPS_UVIndex-ClearSky_Sfc_LatLon0.15_PT186H.grib2 2026-05-01 04:51 1.0M
20260501T00Z_MSC_GDPS_UVIndex-Max24h_Sfc_LatLon0.15_PT186H.grib2 2026-05-01 04:51 3.2M
20260501T00Z_MSC_GDPS_UVIndex_Sfc_LatLon0.15_PT186H.grib2 2026-05-01 04:51 1.5M
20260501T00Z_MSC_GDPS_UpwardLongwaveRadiationFlux_NTAtm_LatLon0.15_PT186H.grib2 2026-05-01 04:36 842K
20260501T00Z_MSC_GDPS_VerticalVelocity_IsbL-0200_LatLon0.15_PT186H.grib2 2026-05-01 04:36 953K
20260501T00Z_MSC_GDPS_VerticalVelocity_IsbL-0250_LatLon0.15_PT186H.grib2 2026-05-01 04:36 1.1M
20260501T00Z_MSC_GDPS_VerticalVelocity_IsbL-0500_LatLon0.15_PT186H.grib2 2026-05-01 04:36 1.0M
20260501T00Z_MSC_GDPS_VerticalVelocity_IsbL-0600_LatLon0.15_PT186H.grib2 2026-05-01 04:36 1.1M
20260501T00Z_MSC_GDPS_VerticalVelocity_IsbL-0700_LatLon0.15_PT186H.grib2 2026-05-01 04:36 1.1M
20260501T00Z_MSC_GDPS_VerticalVelocity_IsbL-0850_LatLon0.15_PT186H.grib2 2026-05-01 04:36 1.3M
20260501T00Z_MSC_GDPS_WindChill_Sfc_LatLon0.15_PT186H.grib2 2026-05-01 04:36 5.3M
20260501T00Z_MSC_GDPS_WindDir_AGL-10m_LatLon0.15_PT186H.grib2 2026-05-01 04:36 1.3M
20260501T00Z_MSC_GDPS_WindDir_AGL-120m_LatLon0.15_PT186H.grib2 2026-05-01 04:36 1.3M
20260501T00Z_MSC_GDPS_WindDir_AGL-40m_LatLon0.15_PT186H.grib2 2026-05-01 04:36 1.4M
20260501T00Z_MSC_GDPS_WindDir_AGL-80m_LatLon0.15_PT186H.grib2 2026-05-01 04:36 1.4M
20260501T00Z_MSC_GDPS_WindDir_IsbL-0001_LatLon0.15_PT186H.grib2 2026-05-01 04:36 657K
20260501T00Z_MSC_GDPS_WindDir_IsbL-0005_LatLon0.15_PT186H.grib2 2026-05-01 04:36 819K
20260501T00Z_MSC_GDPS_WindDir_IsbL-0010_LatLon0.15_PT186H.grib2 2026-05-01 04:36 829K
20260501T00Z_MSC_GDPS_WindDir_IsbL-0020_LatLon0.15_PT186H.grib2 2026-05-01 04:36 950K
20260501T00Z_MSC_GDPS_WindDir_IsbL-0030_LatLon0.15_PT186H.grib2 2026-05-01 04:36 934K
20260501T00Z_MSC_GDPS_WindDir_IsbL-0050_LatLon0.15_PT186H.grib2 2026-05-01 04:36 957K
20260501T00Z_MSC_GDPS_WindDir_IsbL-0100_LatLon0.15_PT186H.grib2 2026-05-01 04:36 1.0M
20260501T00Z_MSC_GDPS_WindDir_IsbL-0150_LatLon0.15_PT186H.grib2 2026-05-01 04:36 1.0M
20260501T00Z_MSC_GDPS_WindDir_IsbL-0175_LatLon0.15_PT186H.grib2 2026-05-01 04:36 1.1M
20260501T00Z_MSC_GDPS_WindDir_IsbL-0200_LatLon0.15_PT186H.grib2 2026-05-01 04:36 1.1M
20260501T00Z_MSC_GDPS_WindDir_IsbL-0225_LatLon0.15_PT186H.grib2 2026-05-01 04:36 1.1M
20260501T00Z_MSC_GDPS_WindDir_IsbL-0250_LatLon0.15_PT186H.grib2 2026-05-01 04:36 1.1M
20260501T00Z_MSC_GDPS_WindDir_IsbL-0275_LatLon0.15_PT186H.grib2 2026-05-01 04:36 1.2M
20260501T00Z_MSC_GDPS_WindDir_IsbL-0300_LatLon0.15_PT186H.grib2 2026-05-01 04:36 1.2M
20260501T00Z_MSC_GDPS_WindDir_IsbL-0350_LatLon0.15_PT186H.grib2 2026-05-01 04:36 1.2M
20260501T00Z_MSC_GDPS_WindDir_IsbL-0400_LatLon0.15_PT186H.grib2 2026-05-01 04:36 1.3M
20260501T00Z_MSC_GDPS_WindDir_IsbL-0450_LatLon0.15_PT186H.grib2 2026-05-01 04:36 1.3M
20260501T00Z_MSC_GDPS_WindDir_IsbL-0500_LatLon0.15_PT186H.grib2 2026-05-01 04:36 1.4M
20260501T00Z_MSC_GDPS_WindDir_IsbL-0550_LatLon0.15_PT186H.grib2 2026-05-01 04:36 1.4M
20260501T00Z_MSC_GDPS_WindDir_IsbL-0600_LatLon0.15_PT186H.grib2 2026-05-01 04:36 1.5M
20260501T00Z_MSC_GDPS_WindDir_IsbL-0650_LatLon0.15_PT186H.grib2 2026-05-01 04:36 1.5M
20260501T00Z_MSC_GDPS_WindDir_IsbL-0700_LatLon0.15_PT186H.grib2 2026-05-01 04:36 1.6M
20260501T00Z_MSC_GDPS_WindDir_IsbL-0750_LatLon0.15_PT186H.grib2 2026-05-01 04:36 1.7M
20260501T00Z_MSC_GDPS_WindDir_IsbL-0800_LatLon0.15_PT186H.grib2 2026-05-01 04:36 1.8M
20260501T00Z_MSC_GDPS_WindDir_IsbL-0850_LatLon0.15_PT186H.grib2 2026-05-01 04:36 1.9M
20260501T00Z_MSC_GDPS_WindDir_IsbL-0875_LatLon0.15_PT186H.grib2 2026-05-01 04:36 2.0M
20260501T00Z_MSC_GDPS_WindDir_IsbL-0900_LatLon0.15_PT186H.grib2 2026-05-01 04:36 2.0M
20260501T00Z_MSC_GDPS_WindDir_IsbL-0925_LatLon0.15_PT186H.grib2 2026-05-01 04:36 2.0M
20260501T00Z_MSC_GDPS_WindDir_IsbL-0950_LatLon0.15_PT186H.grib2 2026-05-01 04:36 2.0M
20260501T00Z_MSC_GDPS_WindDir_IsbL-0970_LatLon0.15_PT186H.grib2 2026-05-01 04:36 2.0M
20260501T00Z_MSC_GDPS_WindDir_IsbL-0985_LatLon0.15_PT186H.grib2 2026-05-01 04:36 2.0M
20260501T00Z_MSC_GDPS_WindDir_IsbL-1000_LatLon0.15_PT186H.grib2 2026-05-01 04:36 2.1M
20260501T00Z_MSC_GDPS_WindDir_IsbL-1015_LatLon0.15_PT186H.grib2 2026-05-01 04:36 2.0M
20260501T00Z_MSC_GDPS_WindGust-Max_AGL-10m_LatLon0.15_PT186H.grib2 2026-05-01 04:36 2.2M
20260501T00Z_MSC_GDPS_WindGust-Min_AGL-10m_LatLon0.15_PT186H.grib2 2026-05-01 04:36 2.2M
20260501T00Z_MSC_GDPS_WindGust_AGL-10m_LatLon0.15_PT186H.grib2 2026-05-01 04:36 2.2M
20260501T00Z_MSC_GDPS_WindSpeed_AGL-10m_LatLon0.15_PT186H.grib2 2026-05-01 04:36 1.1M
20260501T00Z_MSC_GDPS_WindSpeed_AGL-120m_LatLon0.15_PT186H.grib2 2026-05-01 04:36 1.2M
20260501T00Z_MSC_GDPS_WindSpeed_AGL-40m_LatLon0.15_PT186H.grib2 2026-05-01 04:36 1.2M
20260501T00Z_MSC_GDPS_WindSpeed_AGL-80m_LatLon0.15_PT186H.grib2 2026-05-01 04:36 1.2M
20260501T00Z_MSC_GDPS_WindSpeed_IsbL-0001_LatLon0.15_PT186H.grib2 2026-05-01 04:36 654K
20260501T00Z_MSC_GDPS_WindSpeed_IsbL-0005_LatLon0.15_PT186H.grib2 2026-05-01 04:36 698K
20260501T00Z_MSC_GDPS_WindSpeed_IsbL-0010_LatLon0.15_PT186H.grib2 2026-05-01 04:36 628K
20260501T00Z_MSC_GDPS_WindSpeed_IsbL-0020_LatLon0.15_PT186H.grib2 2026-05-01 04:36 666K
20260501T00Z_MSC_GDPS_WindSpeed_IsbL-0030_LatLon0.15_PT186H.grib2 2026-05-01 04:36 670K
20260501T00Z_MSC_GDPS_WindSpeed_IsbL-0050_LatLon0.15_PT186H.grib2 2026-05-01 04:36 696K
20260501T00Z_MSC_GDPS_WindSpeed_IsbL-0100_LatLon0.15_PT186H.grib2 2026-05-01 04:36 1.1M
20260501T00Z_MSC_GDPS_WindSpeed_IsbL-0150_LatLon0.15_PT186H.grib2 2026-05-01 04:36 1.0M
20260501T00Z_MSC_GDPS_WindSpeed_IsbL-0175_LatLon0.15_PT186H.grib2 2026-05-01 04:36 1.0M
20260501T00Z_MSC_GDPS_WindSpeed_IsbL-0200_LatLon0.15_PT186H.grib2 2026-05-01 04:36 1.1M
20260501T00Z_MSC_GDPS_WindSpeed_IsbL-0225_LatLon0.15_PT186H.grib2 2026-05-01 04:36 1.1M
20260501T00Z_MSC_GDPS_WindSpeed_IsbL-0250_LatLon0.15_PT186H.grib2 2026-05-01 04:36 1.1M
20260501T00Z_MSC_GDPS_WindSpeed_IsbL-0275_LatLon0.15_PT186H.grib2 2026-05-01 04:36 1.1M
20260501T00Z_MSC_GDPS_WindSpeed_IsbL-0300_LatLon0.15_PT186H.grib2 2026-05-01 04:36 1.1M
20260501T00Z_MSC_GDPS_WindSpeed_IsbL-0350_LatLon0.15_PT186H.grib2 2026-05-01 04:36 1.1M
20260501T00Z_MSC_GDPS_WindSpeed_IsbL-0400_LatLon0.15_PT186H.grib2 2026-05-01 04:36 1.1M
20260501T00Z_MSC_GDPS_WindSpeed_IsbL-0450_LatLon0.15_PT186H.grib2 2026-05-01 04:36 1.1M
20260501T00Z_MSC_GDPS_WindSpeed_IsbL-0500_LatLon0.15_PT186H.grib2 2026-05-01 04:36 1.1M
20260501T00Z_MSC_GDPS_WindSpeed_IsbL-0550_LatLon0.15_PT186H.grib2 2026-05-01 04:36 1.1M
20260501T00Z_MSC_GDPS_WindSpeed_IsbL-0600_LatLon0.15_PT186H.grib2 2026-05-01 04:36 1.1M
20260501T00Z_MSC_GDPS_WindSpeed_IsbL-0650_LatLon0.15_PT186H.grib2 2026-05-01 04:36 1.5M
20260501T00Z_MSC_GDPS_WindSpeed_IsbL-0700_LatLon0.15_PT186H.grib2 2026-05-01 04:36 1.5M
20260501T00Z_MSC_GDPS_WindSpeed_IsbL-0750_LatLon0.15_PT186H.grib2 2026-05-01 04:36 1.6M
20260501T00Z_MSC_GDPS_WindSpeed_IsbL-0800_LatLon0.15_PT186H.grib2 2026-05-01 04:36 1.7M
20260501T00Z_MSC_GDPS_WindSpeed_IsbL-0850_LatLon0.15_PT186H.grib2 2026-05-01 04:36 1.8M
20260501T00Z_MSC_GDPS_WindSpeed_IsbL-0875_LatLon0.15_PT186H.grib2 2026-05-01 04:36 1.8M
20260501T00Z_MSC_GDPS_WindSpeed_IsbL-0900_LatLon0.15_PT186H.grib2 2026-05-01 04:36 1.8M
20260501T00Z_MSC_GDPS_WindSpeed_IsbL-0925_LatLon0.15_PT186H.grib2 2026-05-01 04:36 1.8M
20260501T00Z_MSC_GDPS_WindSpeed_IsbL-0950_LatLon0.15_PT186H.grib2 2026-05-01 04:36 1.9M
20260501T00Z_MSC_GDPS_WindSpeed_IsbL-0970_LatLon0.15_PT186H.grib2 2026-05-01 04:36 1.9M
20260501T00Z_MSC_GDPS_WindSpeed_IsbL-0985_LatLon0.15_PT186H.grib2 2026-05-01 04:36 1.9M
20260501T00Z_MSC_GDPS_WindSpeed_IsbL-1000_LatLon0.15_PT186H.grib2 2026-05-01 04:36 1.8M
20260501T00Z_MSC_GDPS_WindSpeed_IsbL-1015_LatLon0.15_PT186H.grib2 2026-05-01 04:36 1.8M
20260501T00Z_MSC_GDPS_WindU_AGL-10m_LatLon0.15_PT186H.grib2 2026-05-01 04:36 1.3M
20260501T00Z_MSC_GDPS_WindU_AGL-120m_LatLon0.15_PT186H.grib2 2026-05-01 04:36 1.0M
20260501T00Z_MSC_GDPS_WindU_AGL-40m_LatLon0.15_PT186H.grib2 2026-05-01 04:36 968K
20260501T00Z_MSC_GDPS_WindU_AGL-80m_LatLon0.15_PT186H.grib2 2026-05-01 04:36 1.0M
20260501T00Z_MSC_GDPS_WindU_IsbL-0001_LatLon0.15_PT186H.grib2 2026-05-01 04:36 506K
20260501T00Z_MSC_GDPS_WindU_IsbL-0005_LatLon0.15_PT186H.grib2 2026-05-01 04:36 698K
20260501T00Z_MSC_GDPS_WindU_IsbL-0010_LatLon0.15_PT186H.grib2 2026-05-01 04:36 703K
20260501T00Z_MSC_GDPS_WindU_IsbL-0020_LatLon0.15_PT186H.grib2 2026-05-01 04:36 732K
20260501T00Z_MSC_GDPS_WindU_IsbL-0030_LatLon0.15_PT186H.grib2 2026-05-01 04:36 739K
20260501T00Z_MSC_GDPS_WindU_IsbL-0050_LatLon0.15_PT186H.grib2 2026-05-01 04:36 763K
20260501T00Z_MSC_GDPS_WindU_IsbL-0100_LatLon0.15_PT186H.grib2 2026-05-01 04:36 926K
20260501T00Z_MSC_GDPS_WindU_IsbL-0150_LatLon0.15_PT186H.grib2 2026-05-01 04:36 1.0M
20260501T00Z_MSC_GDPS_WindU_IsbL-0175_LatLon0.15_PT186H.grib2 2026-05-01 04:36 1.0M
20260501T00Z_MSC_GDPS_WindU_IsbL-0200_LatLon0.15_PT186H.grib2 2026-05-01 04:36 1.0M
20260501T00Z_MSC_GDPS_WindU_IsbL-0225_LatLon0.15_PT186H.grib2 2026-05-01 04:36 1.1M
20260501T00Z_MSC_GDPS_WindU_IsbL-0250_LatLon0.15_PT186H.grib2 2026-05-01 04:36 854K
20260501T00Z_MSC_GDPS_WindU_IsbL-0275_LatLon0.15_PT186H.grib2 2026-05-01 04:36 884K
20260501T00Z_MSC_GDPS_WindU_IsbL-0300_LatLon0.15_PT186H.grib2 2026-05-01 04:36 876K
20260501T00Z_MSC_GDPS_WindU_IsbL-0350_LatLon0.15_PT186H.grib2 2026-05-01 04:36 1.1M
20260501T00Z_MSC_GDPS_WindU_IsbL-0400_LatLon0.15_PT186H.grib2 2026-05-01 04:36 1.1M
20260501T00Z_MSC_GDPS_WindU_IsbL-0450_LatLon0.15_PT186H.grib2 2026-05-01 04:36 1.1M
20260501T00Z_MSC_GDPS_WindU_IsbL-0500_LatLon0.15_PT186H.grib2 2026-05-01 04:36 1.1M
20260501T00Z_MSC_GDPS_WindU_IsbL-0550_LatLon0.15_PT186H.grib2 2026-05-01 04:36 1.1M
20260501T00Z_MSC_GDPS_WindU_IsbL-0600_LatLon0.15_PT186H.grib2 2026-05-01 04:36 1.2M
20260501T00Z_MSC_GDPS_WindU_IsbL-0650_LatLon0.15_PT186H.grib2 2026-05-01 04:36 1.2M
20260501T00Z_MSC_GDPS_WindU_IsbL-0700_LatLon0.15_PT186H.grib2 2026-05-01 04:36 1.2M
20260501T00Z_MSC_GDPS_WindU_IsbL-0750_LatLon0.15_PT186H.grib2 2026-05-01 04:36 1.3M
20260501T00Z_MSC_GDPS_WindU_IsbL-0800_LatLon0.15_PT186H.grib2 2026-05-01 04:36 1.4M
20260501T00Z_MSC_GDPS_WindU_IsbL-0850_LatLon0.15_PT186H.grib2 2026-05-01 04:36 1.4M
20260501T00Z_MSC_GDPS_WindU_IsbL-0875_LatLon0.15_PT186H.grib2 2026-05-01 04:36 1.5M
20260501T00Z_MSC_GDPS_WindU_IsbL-0900_LatLon0.15_PT186H.grib2 2026-05-01 04:36 1.5M
20260501T00Z_MSC_GDPS_WindU_IsbL-0925_LatLon0.15_PT186H.grib2 2026-05-01 04:36 1.5M
20260501T00Z_MSC_GDPS_WindU_IsbL-0950_LatLon0.15_PT186H.grib2 2026-05-01 04:36 1.4M
20260501T00Z_MSC_GDPS_WindU_IsbL-0970_LatLon0.15_PT186H.grib2 2026-05-01 04:36 1.4M
20260501T00Z_MSC_GDPS_WindU_IsbL-0985_LatLon0.15_PT186H.grib2 2026-05-01 04:36 1.4M
20260501T00Z_MSC_GDPS_WindU_IsbL-1000_LatLon0.15_PT186H.grib2 2026-05-01 04:36 1.4M
20260501T00Z_MSC_GDPS_WindU_IsbL-1015_LatLon0.15_PT186H.grib2 2026-05-01 04:36 1.3M
20260501T00Z_MSC_GDPS_WindV_AGL-10m_LatLon0.15_PT186H.grib2 2026-05-01 04:36 1.3M
20260501T00Z_MSC_GDPS_WindV_AGL-120m_LatLon0.15_PT186H.grib2 2026-05-01 04:36 1.0M
20260501T00Z_MSC_GDPS_WindV_AGL-40m_LatLon0.15_PT186H.grib2 2026-05-01 04:36 968K
20260501T00Z_MSC_GDPS_WindV_AGL-80m_LatLon0.15_PT186H.grib2 2026-05-01 04:36 1.0M
20260501T00Z_MSC_GDPS_WindV_IsbL-0001_LatLon0.15_PT186H.grib2 2026-05-01 04:36 721K
20260501T00Z_MSC_GDPS_WindV_IsbL-0005_LatLon0.15_PT186H.grib2 2026-05-01 04:36 868K
20260501T00Z_MSC_GDPS_WindV_IsbL-0010_LatLon0.15_PT186H.grib2 2026-05-01 04:36 797K
20260501T00Z_MSC_GDPS_WindV_IsbL-0020_LatLon0.15_PT186H.grib2 2026-05-01 04:36 851K
20260501T00Z_MSC_GDPS_WindV_IsbL-0030_LatLon0.15_PT186H.grib2 2026-05-01 04:36 855K
20260501T00Z_MSC_GDPS_WindV_IsbL-0050_LatLon0.15_PT186H.grib2 2026-05-01 04:36 1.0M
20260501T00Z_MSC_GDPS_WindV_IsbL-0100_LatLon0.15_PT186H.grib2 2026-05-01 04:36 1.1M
20260501T00Z_MSC_GDPS_WindV_IsbL-0150_LatLon0.15_PT186H.grib2 2026-05-01 04:36 1.0M
20260501T00Z_MSC_GDPS_WindV_IsbL-0175_LatLon0.15_PT186H.grib2 2026-05-01 04:36 1.0M
20260501T00Z_MSC_GDPS_WindV_IsbL-0200_LatLon0.15_PT186H.grib2 2026-05-01 04:36 840K
20260501T00Z_MSC_GDPS_WindV_IsbL-0225_LatLon0.15_PT186H.grib2 2026-05-01 04:36 907K
20260501T00Z_MSC_GDPS_WindV_IsbL-0250_LatLon0.15_PT186H.grib2 2026-05-01 04:36 909K
20260501T00Z_MSC_GDPS_WindV_IsbL-0275_LatLon0.15_PT186H.grib2 2026-05-01 04:36 935K
20260501T00Z_MSC_GDPS_WindV_IsbL-0300_LatLon0.15_PT186H.grib2 2026-05-01 04:36 927K
20260501T00Z_MSC_GDPS_WindV_IsbL-0350_LatLon0.15_PT186H.grib2 2026-05-01 04:36 939K
20260501T00Z_MSC_GDPS_WindV_IsbL-0400_LatLon0.15_PT186H.grib2 2026-05-01 04:36 940K
20260501T00Z_MSC_GDPS_WindV_IsbL-0450_LatLon0.15_PT186H.grib2 2026-05-01 04:36 886K
20260501T00Z_MSC_GDPS_WindV_IsbL-0500_LatLon0.15_PT186H.grib2 2026-05-01 04:36 893K
20260501T00Z_MSC_GDPS_WindV_IsbL-0550_LatLon0.15_PT186H.grib2 2026-05-01 04:36 1.1M
20260501T00Z_MSC_GDPS_WindV_IsbL-0600_LatLon0.15_PT186H.grib2 2026-05-01 04:36 1.1M
20260501T00Z_MSC_GDPS_WindV_IsbL-0650_LatLon0.15_PT186H.grib2 2026-05-01 04:36 1.2M
20260501T00Z_MSC_GDPS_WindV_IsbL-0700_LatLon0.15_PT186H.grib2 2026-05-01 04:36 1.2M
20260501T00Z_MSC_GDPS_WindV_IsbL-0750_LatLon0.15_PT186H.grib2 2026-05-01 04:36 1.3M
20260501T00Z_MSC_GDPS_WindV_IsbL-0800_LatLon0.15_PT186H.grib2 2026-05-01 04:36 1.4M
20260501T00Z_MSC_GDPS_WindV_IsbL-0850_LatLon0.15_PT186H.grib2 2026-05-01 04:36 1.4M
20260501T00Z_MSC_GDPS_WindV_IsbL-0875_LatLon0.15_PT186H.grib2 2026-05-01 04:36 1.5M
20260501T00Z_MSC_GDPS_WindV_IsbL-0900_LatLon0.15_PT186H.grib2 2026-05-01 04:36 1.5M
20260501T00Z_MSC_GDPS_WindV_IsbL-0925_LatLon0.15_PT186H.grib2 2026-05-01 04:36 1.5M
20260501T00Z_MSC_GDPS_WindV_IsbL-0950_LatLon0.15_PT186H.grib2 2026-05-01 04:36 1.4M
20260501T00Z_MSC_GDPS_WindV_IsbL-0970_LatLon0.15_PT186H.grib2 2026-05-01 04:36 1.4M
20260501T00Z_MSC_GDPS_WindV_IsbL-0985_LatLon0.15_PT186H.grib2 2026-05-01 04:36 1.4M
20260501T00Z_MSC_GDPS_WindV_IsbL-1000_LatLon0.15_PT186H.grib2 2026-05-01 04:36 1.4M
20260501T00Z_MSC_GDPS_WindV_IsbL-1015_LatLon0.15_PT186H.grib2 2026-05-01 04:36 1.3M